{"data":{"norad_id":48795,"intl_designator":"2021-045AE","name":"ONEWEB-0233","alt_names":[],"object_type":"PAYLOAD","status":"ACTIVE","operator":null,"country":"UK","launch_date":"2021-05-28","launch_site_code":"VOSTO","launch_vehicle":null,"mission":null,"orbit_class":"UNKNOWN","rcs_meters":null,"size_class":null,"mass_kg":null,"dimensions":null,"purposes":["comms"],"wikipedia_slug":null,"has_3d_model":false,"image_url":null,"decayed_at":null,"tle_current":{"epoch":"2026-05-25T01:11:16.924416Z","epoch_age_seconds":67278,"freshness":"FRESH","line1":"1 48795U 21045AE  26145.04950144 -.00000165  00000+0 -47357-3 0  9992","line2":"2 48795  87.8988 263.8455 0001603  97.8995 262.2318 13.15546788241259","mean_motion":13.15546788,"eccentricity":0.0001603,"inclination_deg":87.8988,"raan_deg":263.8455,"arg_perigee_deg":97.8995,"mean_anomaly_deg":262.2318,"bstar":-0.00047357,"rev_number":24125,"period_min":109.46018895985,"perigee_km":1200.5624753457,"apogee_km":1202.9925959458,"semimajor_km":7579.9145356457,"source":"CELESTRAK","updated_at":"2026-05-25T13:38:22.447543Z"}}}